Flag for Switzerland Weather past 2 weeks in Thônex, Geneva, Switzerland

Now
41 °F

Partly cloudy.


Feels Like: 39 °F
Forecast: 41 / 47 °F
Wind: 3 mph from West

Location: Geneva Cointrin Airport

Current Time: Dec 17, 2014 at 10:57:25 PM

Latest Report: Dec 17, 2014 at 10:20 PM


Visibility: N/A

Pressure: 30.09 "Hg

Humidity: 93%

Dew point: 39 °F

Location of ThônexLocation

Historic Weather in Thônex — Graph

°F

Thônex temperature yesterday

Maximum temperature yesterday: 48 °F (at 12:20 PM)
Minimum temperature yesterday: 39 °F (at 12:50 AM)
Average temperature yesterday: 43 °F

Past Weeks' High & Low Weather Summary

 TemperatureHumidityPressure
High55 °F (Dec 13, 1:20 PM)100% (Dec 2, 9:20 PM)30.39 "Hg (Dec 2, 9:20 PM)
Low27 °F (Dec 10, 4:50 AM)47% (Dec 13, 1:20 PM)29.83 "Hg (Dec 2, 9:20 PM)
Average42 °F82%30.07 "Hg
* Reported Dec 2 9:20 PM — Dec 17 9:20 PM, Thônex, Weather by CustomWeather, © 2014

Note: Actual official high and low records may vary slightly from our data, if they occured in-between our weather recording intervals... More about our weather records

Advertising

Thônex weather history for previous 24 hours

 ConditionsComfort  
Time TempWeatherWind HumidityBarometerVisibility
9:20 PM
Dec 17
41 °FPartly cloudy.3 mph100%30.07 "HgN/A
8:50 PM41 °FPartly cloudy.5 mph93%30.07 "HgN/A
8:20 PM41 °FPassing clouds.6 mph93%30.04 "HgN/A
7:50 PM41 °FPassing clouds.1 mph93%30.07 "Hg5 mi
7:20 PM41 °FLight rain. Partly cloudy.1 mph93%30.04 "Hg5 mi
6:50 PM39 °FLight rain. Partly cloudy.2 mph100%30.04 "Hg5 mi
6:20 PM41 °FLight rain. Partly cloudy.3 mph93%30.01 "Hg5 mi
5:50 PM39 °FLight rain. Partly cloudy.6 mph100%30.01 "HgN/A
5:20 PM39 °FRain. Passing clouds.6 mph100%30.01 "Hg6 mi
4:50 PM39 °FLight rain. Passing clouds.8 mph100%30.01 "Hg5 mi
4:20 PM39 °FLight rain. Partly sunny.10 mph93%29.98 "Hg5 mi
3:50 PM39 °FRain. Partly sunny.8 mph93%29.98 "Hg5 mi
3:20 PM39 °FRain. More clouds than sun.12 mph93%29.98 "Hg5 mi
2:50 PM39 °FRain. More clouds than sun.12 mph93%30.01 "Hg5 mi
2:20 PM39 °FRain. More clouds than sun.9 mph100%30.01 "Hg6 mi
1:50 PM41 °FLight rain. More clouds than sun.9 mph93%30.01 "Hg6 mi
1:20 PM41 °FLight rain. More clouds than sun.12 mph93%30.01 "Hg6 mi
12:50 PM41 °FLight rain. More clouds than sun.10 mph93%30.04 "Hg6 mi
12:20 PM43 °FLight rain. More clouds than sun.12 mph81%30.04 "HgN/A
11:50 AM43 °FLight rain. Overcast.13 mph81%30.04 "HgN/A
11:20 AM43 °FLight rain. Partly sunny.12 mph76%30.04 "HgN/A
10:50 AM43 °FPartly sunny.12 mph76%30.07 "HgN/A
10:20 AM43 °FPartly sunny.13 mph76%30.07 "HgN/A
9:50 AM43 °FPartly sunny.10 mph76%30.04 "HgN/A
9:20 AM41 °FPartly sunny.10 mph87%30.04 "HgN/A
8:50 AM41 °FPartly sunny.5 mph87%30.04 "HgN/A
8:20 AM39 °FPartly sunny.3 mph93%30.04 "HgN/A
7:50 AM37 °FPassing clouds.3 mph93%30.04 "HgN/A
7:20 AM37 °FPassing clouds.2 mph93%30.04 "HgN/A
6:50 AM37 °FPassing clouds.3 mph93%30.04 "HgN/A
6:20 AM36 °FPassing clouds.2 mph100%30.04 "HgN/A
5:50 AM36 °FPassing clouds.2 mph100%30.04 "HgN/A
5:20 AM36 °FPassing clouds.2 mph100%30.04 "HgN/A
4:50 AM34 °FPassing clouds.2 mph100%30.04 "HgN/A
4:20 AM36 °FPassing clouds.2 mph100%30.04 "HgN/A
3:50 AM36 °FPassing clouds.3 mph100%30.04 "HgN/A
3:20 AM34 °FPassing clouds.2 mph100%30.04 "HgN/A
2:50 AM36 °FPassing clouds.2 mph93%30.04 "HgN/A
1:50 AM37 °FPassing clouds.1 mph87%30.01 "HgN/A
1:20 AM37 °FPassing clouds.1 mph87%30.01 "HgN/A
12:50 AM39 °FPassing clouds.3 mph87%30.01 "HgN/A
12:20 AM39 °FPassing clouds.2 mph100%30.01 "HgN/A
11:50 PM
Dec 16
39 °FPassing clouds.1 mph100%30.01 "HgN/A
11:20 PM41 °FPassing clouds.1 mph100%30.01 "HgN/A
10:50 PM43 °FPassing clouds.1 mph93%30.01 "HgN/A
10:20 PM43 °FPassing clouds.2 mph93%30.01 "HgN/A
Weather by CustomWeather, © 2014

See weather overviewHow to use our weather pages